Location: Boulder, CO
(40.0083°N, 105.2472°W)
Time: 23:16:17
(UTC-06:00)

SORCE - Visible Passes

Search period start: 19 April 2018 00:00
Search period end: 29 April 2018 00:00
Orbit: 585 x 618 km, 40.0° (Epoch: 19 April)

Date Brightness Start Highest point End Pass type
(mag) Time Alt. Az. Time Alt. Az. Time Alt. Az.
19 Apr 6.1 20:04:43 10° W 20:09:18 90° SW 20:13:52 10° E visible
19 Apr 5.9 21:46:39 10° W 21:51:13 73° SSW 21:51:27 70° SSE visible
20 Apr 6.1 20:15:31 10° W 20:20:07 89° NNE 20:24:41 10° E visible
20 Apr 6.3 21:57:28 10° W 22:01:37 53° SW 22:01:37 53° SW visible
21 Apr 6.0 20:26:19 10° W 20:30:55 84° S 20:35:05 12° ESE visible
21 Apr 7.1 22:08:21 10° W 22:11:46 35° SW 22:11:46 35° SW visible
22 Apr 6.1 20:37:07 10° W 20:41:40 69° SSW 20:45:15 16° ESE visible
22 Apr 7.8 22:19:25 10° W 22:21:56 22° SW 22:21:56 22° SW visible
23 Apr 6.5 20:47:56 10° W 20:52:22 51° SSW 20:55:27 19° SE visible
23 Apr 8.4 22:30:56 10° WSW 22:32:08 14° WSW 22:32:08 14° WSW visible
24 Apr 7.0 20:58:50 10° W 21:03:01 35° SSW 21:05:40 19° SSE visible
25 Apr 7.7 21:09:57 10° W 21:13:34 23° SSW 21:15:56 16° S visible
26 Apr 8.3 21:21:38 10° WSW 21:24:02 14° SW 21:26:15 11° S visible
